Location: ECC Obs
(38.4314°N, 90.9815°W)
Time: 15:30:11
(UTC-05:00)

Tiros 1 - All Passes

Search period start: 03 April 2020 00:00
Search period end: 13 April 2020 00:00
Orbit: 630 x 664 km, 48.4° (Epoch: 03 April)

Date Brightness Start Highest point End Pass type
(mag) Time Alt. Az. Time Alt. Az. Time Alt. Az.
03 Apr - 10:39:45 10° SW 10:44:23 54° SE 10:49:05 10° ENE daylight
03 Apr - 12:22:13 10° W 12:26:44 40° NNW 12:31:17 10° NE daylight
03 Apr - 14:05:56 10° WNW 14:09:53 24° N 14:13:50 10° NE daylight
03 Apr - 15:48:39 10° NW 15:53:06 35° NNE 15:57:31 10° E daylight
03 Apr - 17:30:48 10° WNW 17:35:35 68° SW 17:40:20 10° SE daylight
03 Apr - 19:15:24 10° WSW 19:17:06 12° SW 19:18:47 10° SSW daylight
04 Apr - 09:24:56 10° S 09:28:34 22° SE 09:32:14 10° E daylight
04 Apr - 11:05:38 10° WSW 11:10:24 74° NNW 11:15:13 10° NE daylight
04 Apr - 12:49:01 10° WNW 12:53:11 28° NNW 12:57:22 10° NE daylight
04 Apr - 14:32:24 10° NW 14:36:29 26° N 14:40:32 10° ENE daylight
04 Apr - 16:14:39 10° NW 16:19:25 58° NNE 16:24:08 10° ESE daylight
04 Apr - 17:57:13 10° WNW 18:01:26 31° SW 18:05:36 10° SSE daylight
05 Apr - 09:49:45 10° SW 09:54:19 49° SE 09:58:58 10° ENE daylight
05 Apr - 11:32:05 10° W 11:36:37 42° NNW 11:41:12 10° NE daylight
05 Apr - 13:15:48 10° WNW 13:19:45 25° N 13:23:42 10° NE daylight
05 Apr - 14:58:34 10° NW 15:02:58 34° NNE 15:07:21 10° E daylight
05 Apr - 16:40:42 10° WNW 16:45:31 74° SW 16:50:17 10° SE daylight
05 Apr - 18:24:52 10° W 18:27:04 13° SW 18:29:16 10° SSW daylight
06 Apr - 08:35:06 10° S 08:38:32 20° SE 08:42:00 10° E daylight
06 Apr - 10:15:33 10° WSW 10:20:19 80° NNW 10:25:08 10° NE daylight
06 Apr - 11:58:52 10° WNW 12:03:03 29° NNW 12:07:16 10° NE daylight
06 Apr - 13:42:17 10° NW 13:46:20 26° N 13:50:22 10° ENE daylight
06 Apr - 15:24:34 10° NW 15:29:18 54° NNE 15:34:01 10° ESE daylight
06 Apr - 17:07:04 10° WNW 17:11:23 33° SW 17:15:40 10° SSE daylight
07 Apr - 08:59:45 10° SSW 09:04:15 45° SE 09:08:50 10° ENE daylight
07 Apr - 10:41:57 10° W 10:46:31 44° NNW 10:51:07 10° NE daylight
07 Apr - 12:25:39 10° WNW 12:29:36 25° N 12:33:34 10° NE daylight
07 Apr - 14:08:29 10° NW 14:12:50 33° NNE 14:17:12 10° E daylight
07 Apr - 15:50:36 10° WNW 15:55:26 80° SW 16:00:14 10° SE daylight
07 Apr - 17:34:26 10° W 17:37:02 15° SW 17:39:37 10° SSW daylight
08 Apr - 07:45:17 10° S 07:48:30 18° SE 07:51:43 10° E daylight
08 Apr - 09:25:28 10° WSW 09:30:13 85° NNW 09:35:02 10° NE daylight
08 Apr - 11:08:42 10° WNW 11:12:55 30° NNW 11:17:10 10° NE daylight
08 Apr - 12:52:11 10° NW 12:56:11 25° N 13:00:12 10° ENE daylight
08 Apr - 14:34:29 10° NW 14:39:12 51° NNE 14:43:53 10° ESE daylight
08 Apr - 16:16:55 10° WNW 16:21:19 36° SW 16:25:42 10° SSE daylight
09 Apr - 08:09:47 10° SSW 08:14:12 41° SE 08:18:42 10° ENE daylight
09 Apr - 09:51:49 10° W 09:56:24 46° NNW 10:01:02 10° NE daylight
09 Apr - 11:35:30 10° WNW 11:39:28 25° N 11:43:26 10° NE daylight
09 Apr - 13:18:24 10° NW 13:22:42 32° NNE 13:27:01 10° E daylight
09 Apr - 15:00:30 10° WNW 15:05:21 86° SSW 15:10:09 10° SE daylight
09 Apr - 16:44:05 10° W 16:47:00 16° SW 16:49:54 10° SSW daylight
10 Apr - 06:55:31 10° S 06:58:28 17° SE 07:01:27 10° E daylight
10 Apr - 08:35:24 10° SW 08:40:08 89° SSE 08:44:56 10° ENE daylight
10 Apr - 10:18:33 10° WNW 10:22:47 31° NNW 10:27:04 10° NE daylight
10 Apr - 12:02:04 10° NW 12:06:03 25° N 12:10:02 10° ENE daylight
10 Apr - 13:44:24 10° NW 13:49:05 48° NNE 13:53:45 10° E daylight
10 Apr - 15:26:46 10° WNW 15:31:16 40° SW 15:35:44 10° SSE daylight
11 Apr - 07:19:49 10° SSW 07:24:09 38° SE 07:28:33 10° ENE daylight
11 Apr - 09:01:42 10° W 09:06:17 49° NNW 09:10:57 10° NE daylight
11 Apr - 10:45:22 10° WNW 10:49:19 25° N 10:53:18 10° NE daylight
11 Apr - 12:28:19 10° NW 12:32:34 31° NNE 12:36:51 10° ENE daylight
11 Apr - 14:10:25 10° WNW 14:15:15 89° NNE 14:20:05 10° SE daylight
11 Apr - 15:53:47 10° W 15:56:57 18° SW 16:00:08 10° S daylight
12 Apr - 06:05:47 10° SSE 06:08:26 15° SE 06:11:06 10° E visible
12 Apr - 07:45:21 10° SW 07:50:03 83° SSE 07:54:50 10° ENE daylight
12 Apr - 09:28:24 10° W 09:32:39 32° NNW 09:36:58 10° NE daylight
12 Apr - 11:11:58 10° NW 11:15:54 25° N 11:19:52 10° ENE daylight
12 Apr - 12:54:21 10° NW 12:58:58 46° NNE 13:03:36 10° E daylight
12 Apr - 14:36:38 10° WNW 14:41:11 43° SW 14:45:44 10° SSE daylight
